Location: Azul
(36.7830°S, 59.8500°W)
Time: 09:10:30
(UTC-03:00)

ISS - Pass Details

Date: 05 December 2019
Orbit: 411 x 421 km, 51.6° (Epoch: 11 December)

Event Time Altitude Azimuth Distance (km) Brightness Sun altitude
Exits shadow 03:27:37 14° 233° (SW) 1,284 -1.3 -20.1°
Maximum altitude 03:28:55 17° 206° (SSW) 1,164 -1.3 -20.0°
Drops below altitude 10° 03:31:16 10° 163° (SSE) 1,527 0.1 -19.7°
Sets 03:33:55 0° 141° (SE) 2,394 1.8 -19.3°
